Location: The Saddle
(36.8333°N, 80.3417°W)
Time: 07:45:06
(UTC-04:00)

Vanguard 2 Rocket - Pass Details

Date: 06 February 2023
Orbit: 555 x 3316 km, 32.9° (Epoch: 27 March)

Event Time Altitude Azimuth Distance (km) Brightness Sun altitude
Rises 08:44:08 0° 232° (SW) 4,854 10.4 14.4°
Reaches altitude 10° 08:48:20 10° 224° (SW) 3,387 9.8 15.2°
Maximum altitude 08:55:08 32° 165° (SSE) 1,532 9.0 16.3°
Drops below altitude 10° 08:59:37 10° 102° (ESE) 2,202 10.3 17.0°
Sets 09:01:47 0° 91° (E) 2,951 10.5 17.4°
